Starlink 34434

operational
NORAD ID: 64422 Int'l Des: 2025-129 Owner: SPXS Country: US Constellation: starlink
LEOCIRCULAR

Über Starlink 34434

Beschreibung wird geladen...

Live-Position

3D-Globus wird geladen...

Nächste Überflüge

Höhenverlauf

Altitude vs Time

uPlot chart will show altitude changes over time

Zweizeiliger Elementsatz

1 64422U 25129L 25343.63553353 .00006239 00000-0 53014-3 0 9993
2 64422 70.0023 301.6944 0002906 271.9542 88.1285 14.98336915 27792
Epoch: 9. Dez. 2025 • Age: 7 hours

Aktueller Status

Höhe 575.2 km
Geschwindigkeit 7.57 km/s
Subsatellitenpunkt -5.92°S, 66.82°E
Startdatum 17. Juni 2025
Alter 0.4 years
Typ internet

Technische Details

Klassifizierung Payload
Masse 575.00 kg
Trockenmasse 530.00 kg
Gesamtmasse 575.00 kg
Länge 0.30 m
Durchmesser 4.10 m
Spannweite 29.00 m
Form Box + pan
Hersteller SPXS
Bus-Typ Starlink V2MO
Phasenstatus In Orbit
Besitzer/Staat SPXS/US

Große Konstellationen

Loading constellations...